Location: Highland Park
(37.7977°N, 122.2275°W)
Time: 04:00:05
(UTC+00:00)

Daily predictions for brighter satellites

Satellite Brightness Start Highest point End
(mag) Time Altitude Azimuth Time Altitude Azimuth Time Altitude Azimuth
CZ-4C R/B 3.3 01:34:23 10° NNW 01:41:24 45° NE 01:49:15 10° ESE
Cosmos 2219 Rocket 2.2 01:39:14 10° NNW 01:44:53 64° ENE 01:50:29 10° SSE
USA 234 3.3 01:38:44 10° SE 01:45:15 80° NE 01:51:48 10° NW
COSMOS 2428 2.7 01:43:01 10° NNW 01:48:45 66° ENE 01:54:26 10° SSE
Cosmos 1048 Rocket 3.9 01:46:46 10° NNW 01:51:53 65° ENE 01:56:56 10° SSE
Nadezhda 3 Rocket 4.1 01:46:50 10° N 01:53:03 59° E 01:59:16 10° SSE
NOSS 0 Rocket 4.2 01:51:02 10° NNW 01:57:00 46° ENE 02:02:54 10° SE
SKYMED 2 3.8 01:54:46 10° NNE 01:59:01 51° E 02:03:14 10° S
Cosmos 1300 2.6 01:59:03 10° N 02:02:52 77° E 02:06:40 10° S
SMAP 4.1 02:01:07 10° S 02:05:37 51° W 02:10:10 10° NNW
Cosmos 1242 Rocket 3.9 02:04:03 10° SSW 02:07:20 40° WNW 02:10:42 10° N
Atlas Centaur 2 4.0 02:04:32 10° S 02:07:23 15° SSE 02:10:35 10° ESE
USA 116 4.1 02:07:17 10° NE 02:10:03 27° E 02:12:43 10° SSE
Cosmos 2341 Rocket 4.1 02:04:04 10° SSE 02:10:17 57° E 02:16:30 10° NNE
Cosmos 1812 Rocket 3.5 02:06:19 10° N 02:10:48 72° E 02:15:14 10° SSE
SL-8 Rocket 4.4 02:05:30 10° SSE 02:11:19 41° E 02:17:09 10° NNE
Cosmos 1626 3.3 02:10:05 10° SSW 02:13:37 45° W 02:17:12 10° N
YAOGAN 6 2.5 02:11:05 10° SSE 02:14:46 79° E 02:18:28 10° N
YAOGAN 1 3.1 02:10:52 10° SE 02:14:48 35° ENE 02:18:45 10° N
Cosmos 1340 Rocket 2.7 02:11:40 10° N 02:15:37 76° E 02:19:36 10° SSE
Meteor 2-10 Rocket 4.3 02:13:28 10° NNE 02:17:58 27° ENE 02:22:18 10° SE
Cosmos 1455 3.4 02:15:47 10° NNE 02:18:42 21° ENE 02:21:36 10° SE
Ariane Rocket 4.2 02:20:41 13° ESE 02:23:27 19° ENE 02:27:00 10° NNE
Meteor 2-17 Rocket 4.5 02:18:27 10° S 02:24:36 87° W 02:30:47 10° N
Cosmos-2242 3.5 02:21:35 10° N 02:25:36 37° ENE 02:29:34 10° SSE
Cosmos 494 Rocket 3.8 02:21:35 10° NNW 02:26:43 75° ENE 02:31:49 10° SSE
Cosmos 724 4.5 02:24:44 10° SW 02:30:44 76° WNW 02:36:39 10° NNE
Cosmos 1461 4.3 02:26:51 10° NW 02:31:04 45° WSW 02:35:24 10° S
FALCON 9 R/B 4.3 02:13:58 10° SW 02:33:02 33° SSE 02:38:39 15° ESE
DELTA 2 R/B(2) 3.6 02:31:59 10° W 02:34:03 51° N 02:34:12 48° NNE
ADEOS Rocket 3.8 02:28:13 10° NNE 02:34:26 40° E 02:41:13 10° SSE
Cosmos 1939 Rocket 3.1 02:31:08 10° SE 02:34:46 41° ENE 02:38:28 10° N
Cosmos 2237 Rocket 2.1 02:30:27 10° NNW 02:36:02 61° ENE 02:41:34 10° SE
Cosmos 2333 Rocket 3.5 02:32:02 10° NW 02:37:23 43° WSW 02:42:41 10° S
Iridium 96 4.4 02:43:13 37° SSE 02:43:13 37° SSE 02:44:52 10° S
Cosmos 2218 Rocket 4.0 02:36:45 10° S 02:42:55 62° E 02:49:13 10° NNE
ISS -3.9 02:40:13 10° SW 02:43:34 89° SSE 02:44:34 43° NE
CSL-04 Rocket 3.6 02:39:37 10° SSE 02:45:03 73° ENE 02:50:34 10° N
Meteor 1-21 Rocket 4.3 02:39:37 10° SSW 02:45:10 77° W 02:50:51 10° N
Cosmos 1953 Rocket 3.5 02:40:47 10° S 02:45:13 69° E 02:49:42 10° NNE
COSMO-SKYMED 1 3.8 02:42:57 10° N 02:47:04 42° WNW 02:51:09 10° SW
Cosmos 1758 Rocket 4.1 02:46:13 10° SSW 02:50:27 57° W 02:54:43 10° N
Cosmos 864 Rocket 4.4 02:44:30 10° S 02:50:33 64° E 02:56:36 10° NNE
Cosmos 1339 Rocket 4.4 02:47:05 10° N 02:53:07 65° E 02:59:12 10° SSE
Cosmos 1241 Rocket 4.4 02:47:00 10° NNW 02:53:14 88° WSW 02:59:30 10° SSE
DMSP B5D1-3 4.4 02:49:48 10° NNE 02:54:55 81° ESE 03:00:01 10° S
DELTA 2 R/B (1) 3.6 02:50:48 10° W 02:56:24 78° N 02:58:40 37° ENE
SL-16 R/B 2.8 02:51:52 10° N 02:57:00 34° ENE 02:57:07 34° ENE
Cosmos 2219 4.2 02:52:26 10° SW 02:57:45 44° WNW 03:03:08 10° N
Cosmos 1703 3.1 02:54:01 10° S 02:57:56 72° E 02:59:32 34° NNE
Cosmos 2082 3.6 02:55:31 10° SSW 03:01:05 73° ESE 03:04:23 26° NNE
CZ-4 R/B 2.6 02:59:03 10° S 03:02:51 44° W 03:06:47 10° NNW
Cosmos 1959 Rocket 4.5 03:02:40 10° S 03:08:52 83° W 03:15:03 10° N
ERBS 4.3 03:06:59 10° W 03:09:34 20° NW 03:10:17 19° NNW
Shenzhou-11 Module 3.5 03:07:06 10° WSW 03:08:43 31° W 03:08:43 31° W
Cosmos 2297 Rocket 3.0 03:07:02 10° SW 03:12:29 48° WNW 03:17:43 11° N
Cosmos 1980 4.4 03:12:33 10° NNW 03:18:06 54° WSW 03:23:36 10° S
Cosmos 2366 rocket 4.2 03:13:14 10° SSW 03:19:23 72° W 03:25:39 10° N
Cosmos 2227 Rocket 3.3 03:19:22 10° SW 03:24:43 42° WNW 03:29:22 14° N
SL-8 R/B 4.1 03:21:40 10° WSW 03:26:22 52° NNW 03:26:50 50° N
CZ-3C R/B 4.3 02:50:46 10° W 03:26:30 29° SW 03:32:51 10° SSE
Cosmos 44 3.7 03:23:37 10° SW 03:28:09 52° WNW 03:29:03 44° NNW
CZ-4C R/B 4.1 03:22:58 10° NW 03:30:08 44° WSW 03:37:57 10° S
Cosmos 1727 Rocket 4.2 03:43:03 10° NNW 03:49:12 69° W 03:55:17 10° S
Atlas Centaur 2 3.3 03:50:28 10° SW 03:54:23 33° S 03:54:23 33° S
Ariane Rocket 3.9 03:57:11 10° S 04:02:01 46° W 04:06:54 10° NNW
SL-16 R/B 4.1 04:36:04 10° NW 04:39:06 25° WNW 04:39:06 25° WNW
